NORTHERN NASSAU  -  Areal Flood Advisory Areal Flood Advisory     Flash Flood Watch Flash Flood Watch     Rip Current Statement Rip Current Statement        NORTHERN QUEENS  -  Areal Flood Advisory Areal Flood Advisory     Flash Flood Watch Flash Flood Watch     Rip Current Statement Rip Current Statement        SOUTHERN NASSAU  -  Areal Flood Advisory Areal Flood Advisory     Flash Flood Watch Flash Flood Watch     Rip Current Statement Rip Current Statement        SOUTHERN QUEENS  -  Areal Flood Advisory Areal Flood Advisory     Flash Flood Watch Flash Flood Watch     Rip Current Statement Rip Current Statement        NORTHEAST SUFFOLK  -  Rip Current Statement Rip Current Statement        NORTHWEST SUFFOLK  -  Rip Current Statement Rip Current Statement        SOUTHEAST SUFFOLK  -  Rip Current Statement Rip Current Statement        SOUTHWEST SUFFOLK  -  Rip Current Statement Rip Current Statement      

Active alerts

Northern Queens
  Details for Northern Queens Areal Flood Advisory  +2 additional alerts
Southern Queens
  Details for Southern Queens Areal Flood Advisory  +2 additional alerts
Northern Nassau
  Details for Northern Nassau Areal Flood Advisory  +2 additional alerts
Southern Nassau
  Details for Southern Nassau Areal Flood Advisory  +2 additional alerts
Northwest Suffolk
  Details for Northwest Suffolk Rip Current Statement
Southwest Suffolk
  Details for Southwest Suffolk Rip Current Statement
Northeast Suffolk
  Details for Northeast Suffolk Rip Current Statement
Southeast Suffolk
  Details for Southeast Suffolk Rip Current Statement


WXM80 ListenWXM80 Stop

You find our weather info also at:

UK Metoffice

WeatherCloud

Weather Underground

Northeastern Weather Network

AWEKAS

Citizen Weather Observer Program (CWOP)

HAMweather, WeatherForYou, PWS Weather


Weather Underground History page Text

Daily Summary for November 29, 2017 Units:  English    Metric   Both
« Previous Day
Next Day »
Daily Weekly Monthly Yearly Custom
  High: Low: Average:
Temperature: 62.5 °F 42.7 °F 52.1 °F
Dew Point: 48.7 °F 30.2 °F 40.6 °F
Humidity: 93 % 37 % 67 %
Wind Speed: 11.1 mph 0.0 mph 5.2 mph
Wind Gust: 18.0 mph - -
Wind:- - SW
Pressure: 30.32 in 30.04 in -
Precipitation: 0.00 in    
Historical Graphs
 
 
Tabular Data for November 29, 2017
Time Temperature Dew Point Pressure Wind Wind Speed Wind Gust Humidity Rainfall Rate (Hourly)
00:09 50.3 °F 47.8 °F 30.18 in South 1.9 mph 4.6 mph 91 % 0.00 in
00:14 50.4 °F 47.9 °F 30.18 in South 6.0 mph 10.4 mph 91 % 0.00 in
00:34 50.7 °F 48.5 °F 30.17 in WSW 2.6 mph 4.6 mph 92 % 0.00 in
00:44 50.9 °F 48.4 °F 30.16 in SW 5.9 mph 11.5 mph 91 % 0.00 in
00:49 51.0 °F 48.5 °F 30.16 in South 6.2 mph 10.4 mph 91 % 0.00 in
00:54 51.0 °F 48.5 °F 30.16 in SSE 6.5 mph 10.4 mph 91 % 0.00 in
00:59 51.1 °F 48.6 °F 30.16 in SSW 6.4 mph 12.7 mph 91 % 0.00 in
01:09 51.2 °F 48.7 °F 30.16 in South 3.9 mph 6.9 mph 91 % 0.00 in
01:14 51.2 °F 48.7 °F 30.16 in South 4.1 mph 6.9 mph 91 % 0.00 in
01:24 51.2 °F 48.4 °F 30.16 in South 5.5 mph 9.2 mph 90 % 0.00 in
01:34 51.1 °F 48.3 °F 30.17 in SSW 1.9 mph 5.8 mph 90 % 0.00 in
01:44 51.1 °F 48.3 °F 30.17 in WSW 3.4 mph 5.0 mph 90 % 0.00 in
01:49 51.1 °F 48.3 °F 30.17 in West 1.8 mph 6.9 mph 90 % 0.00 in
01:54 51.0 °F 48.2 °F 30.16 in SW 1.9 mph 4.6 mph 90 % 0.00 in
01:59 51.0 °F 48.2 °F 30.16 in SW 1.4 mph 3.5 mph 90 % 0.00 in
02:04 50.9 °F 48.1 °F 30.16 in SW 3.4 mph 4.6 mph 90 % 0.00 in
02:10 50.9 °F 48.1 °F 30.16 in WSW 2.2 mph 6.9 mph 90 % 0.00 in
02:20 50.7 °F 47.9 °F 30.15 in WSW 1.5 mph 3.5 mph 90 % 0.00 in
02:25 50.6 °F 47.5 °F 30.16 in WSW 2.5 mph 4.6 mph 89 % 0.00 in
02:30 50.5 °F 47.4 °F 30.15 in West 1.0 mph 3.5 mph 89 % 0.00 in
02:40 50.3 °F 47.2 °F 30.15 in WSW 2.0 mph 5.8 mph 89 % 0.00 in
02:45 50.2 °F 47.4 °F 30.14 in WSW 0.2 mph 1.2 mph 90 % 0.00 in
02:50 50.1 °F 47.0 °F 30.14 in Calm     89 % 0.00 in
02:55 50.0 °F 46.9 °F 30.13 in SW 2.6 mph 5.8 mph 89 % 0.00 in
03:00 49.9 °F 46.8 °F 30.12 in SW 3.5 mph 6.0 mph 89 % 0.00 in
03:05 49.7 °F 46.9 °F 30.12 in WSW 1.9 mph 3.5 mph 90 % 0.00 in
03:10 49.6 °F 46.8 °F 30.12 in WSW 1.6 mph 3.5 mph 90 % 0.00 in
03:15 49.6 °F 47.1 °F 30.12 in WSW 2.0 mph 4.6 mph 91 % 0.00 in
03:20 49.6 °F 47.1 °F 30.12 in SSW 1.0 mph 4.6 mph 91 % 0.00 in
03:25 49.6 °F 47.4 °F 30.11 in SW 2.1 mph 4.6 mph 92 % 0.00 in
03:30 49.6 °F 47.4 °F 30.11 in WSW 4.3 mph 8.1 mph 92 % 0.00 in
03:35 49.7 °F 47.5 °F 30.11 in WSW 6.1 mph 10.4 mph 92 % 0.00 in
03:40 49.7 °F 47.5 °F 30.11 in WSW 4.2 mph 10.0 mph 92 % 0.00 in
03:45 49.9 °F 48.0 °F 30.11 in WSW 3.8 mph 8.1 mph 93 % 0.00 in
03:50 49.9 °F 48.0 °F 30.11 in SSW 4.2 mph 5.0 mph 93 % 0.00 in
03:55 50.0 °F 48.1 °F 30.11 in SSW 4.5 mph 11.5 mph 93 % 0.00 in
04:00 50.2 °F 48.3 °F 30.10 in South 6.2 mph 10.4 mph 93 % 0.00 in
04:05 50.3 °F 48.4 °F 30.10 in SSW 4.2 mph 9.2 mph 93 % 0.00 in
04:15 50.5 °F 48.6 °F 30.09 in WSW 6.9 mph 11.5 mph 93 % 0.00 in
04:21 50.5 °F 48.6 °F 30.09 in SW 7.0 mph 13.0 mph 93 % 0.00 in
04:26 50.6 °F 48.7 °F 30.09 in SW 6.0 mph 13.0 mph 93 % 0.00 in
04:31 50.6 °F 48.4 °F 30.09 in SW 5.0 mph 10.0 mph 92 % 0.00 in
04:36 50.6 °F 48.4 °F 30.09 in SSW 8.0 mph 14.0 mph 92 % 0.00 in
04:39 50.6 °F 48.4 °F 30.08 in SSW 5.2 mph 11.0 mph 92 % 0.00 in
04:44 50.6 °F 48.4 °F 30.08 in SSW 4.2 mph 9.2 mph 92 % 0.00 in
04:54 50.6 °F 48.4 °F 30.08 in SSW 5.9 mph 10.4 mph 92 % 0.00 in
05:04 50.5 °F 48.3 °F 30.07 in South 3.7 mph 10.4 mph 92 % 0.00 in
05:14 50.3 °F 48.1 °F 30.07 in SW 8.4 mph 8.4 mph 92 % 0.00 in
05:19 50.3 °F 48.1 °F 30.07 in SSW 6.8 mph 13.0 mph 92 % 0.00 in
05:30 50.2 °F 48.0 °F 30.06 in SSW 6.3 mph 11.5 mph 92 % 0.00 in
05:35 50.2 °F 47.7 °F 30.07 in SW 4.8 mph 13.8 mph 91 % 0.00 in
05:45 50.1 °F 47.6 °F 30.06 in SSW 5.1 mph 9.2 mph 91 % 0.00 in
05:55 50.0 °F 47.2 °F 30.06 in SSW 5.2 mph 11.5 mph 90 % 0.00 in
06:00 49.9 °F 47.1 °F 30.06 in SW 7.9 mph 11.5 mph 90 % 0.00 in
06:05 49.9 °F 47.1 °F 30.06 in SSW 8.2 mph 12.7 mph 90 % 0.00 in
06:15 49.7 °F 46.9 °F 30.06 in SSW 2.8 mph 5.8 mph 90 % 0.00 in
06:20 49.6 °F 46.8 °F 30.06 in South 6.4 mph 12.7 mph 90 % 0.00 in
06:25 49.5 °F 46.7 °F 30.06 in SSW 5.4 mph 8.1 mph 90 % 0.00 in
06:30 49.4 °F 46.3 °F 30.06 in SW 5.5 mph 7.0 mph 89 % 0.00 in
06:35 49.4 °F 46.3 °F 30.06 in SSW 5.9 mph 9.2 mph 89 % 0.00 in
06:45 49.3 °F 46.2 °F 30.07 in SSW 5.7 mph 6.9 mph 89 % 0.00 in
06:51 49.2 °F 46.1 °F 30.07 in SW 5.0 mph 12.0 mph 89 % 0.00 in
06:56 49.1 °F 46.0 °F 30.08 in SW 3.0 mph 8.0 mph 89 % 0.00 in
07:01 49.1 °F 45.7 °F 30.08 in SSW 3.7 mph 7.0 mph 88 % 0.00 in
07:06 49.1 °F 45.7 °F 30.08 in SW 2.5 mph 5.8 mph 88 % 0.00 in
07:16 49.0 °F 45.6 °F 30.07 in SW 5.2 mph 8.1 mph 88 % 0.00 in
07:26 49.0 °F 45.3 °F 30.06 in SSW 6.1 mph 8.1 mph 87 % 0.00 in
07:31 49.1 °F 45.4 °F 30.07 in South 6.8 mph 11.5 mph 87 % 0.00 in
07:36 49.2 °F 45.5 °F 30.06 in SW 5.4 mph 8.1 mph 87 % 0.00 in
07:41 49.2 °F 45.2 °F 30.06 in SW 3.5 mph 6.9 mph 86 % 0.00 in
07:46 49.4 °F 45.4 °F 30.06 in SW 4.9 mph 8.1 mph 86 % 0.00 in
08:01 49.7 °F 45.1 °F 30.06 in SSW 6.0 mph 10.4 mph 84 % 0.00 in
08:02 49.8 °F 45.2 °F 30.06 in SW 7.1 mph 10.0 mph 84 % 0.00 in
08:17 50.3 °F 44.7 °F 30.07 in SSW 5.3 mph 9.2 mph 81 % 0.00 in
08:22 50.4 °F 44.5 °F 30.07 in SSW 6.5 mph 11.5 mph 80 % 0.00 in
08:27 50.5 °F 44.2 °F 30.07 in WSW 7.1 mph 11.5 mph 79 % 0.00 in
08:42 51.2 °F 44.2 °F 30.07 in SSW 6.3 mph 13.8 mph 77 % 0.00 in
08:47 51.5 °F 44.5 °F 30.07 in SW 6.1 mph 13.8 mph 77 % 0.00 in
08:52 51.9 °F 44.6 °F 30.07 in SW 6.5 mph 7.0 mph 76 % 0.00 in
08:57 52.3 °F 44.6 °F 30.07 in WSW 7.8 mph 12.7 mph 75 % 0.00 in
09:02 52.7 °F 44.6 °F 30.07 in SSW 2.3 mph 6.9 mph 74 % 0.00 in
09:08 52.9 °F 44.1 °F 30.07 in West 5.0 mph 11.5 mph 72 % 0.00 in
09:12 53.1 °F 43.9 °F 30.07 in WSW 11.1 mph 17.3 mph 71 % 0.00 in
09:18 53.3 °F 43.8 °F 30.07 in SW 3.3 mph 11.5 mph 70 % 0.00 in
09:23 53.4 °F 43.9 °F 30.07 in WSW 4.4 mph 11.5 mph 70 % 0.00 in
09:28 53.5 °F 44.0 °F 30.07 in WSW 2.9 mph 10.4 mph 70 % 0.00 in
09:33 53.5 °F 43.6 °F 30.07 in SSW 3.0 mph 6.0 mph 69 % 0.00 in
09:43 53.6 °F 43.3 °F 30.07 in SW 5.0 mph 7.0 mph 68 % 0.00 in
09:48 53.9 °F 42.8 °F 30.06 in SW 5.6 mph 8.1 mph 66 % 0.00 in
09:53 54.2 °F 42.7 °F 30.07 in WSW 7.0 mph 16.1 mph 65 % 0.00 in
09:58 54.7 °F 42.3 °F 30.07 in West 8.4 mph 11.5 mph 63 % 0.00 in
10:03 55.1 °F 42.3 °F 30.07 in WSW 5.6 mph 15.0 mph 62 % 0.00 in
10:08 55.4 °F 41.7 °F 30.07 in SW 8.9 mph 11.5 mph 60 % 0.00 in
10:19 55.6 °F 41.9 °F 30.06 in WSW 9.8 mph 14.0 mph 60 % 0.00 in
10:24 55.8 °F 41.7 °F 30.07 in West 9.8 mph 13.8 mph 59 % 0.00 in
10:34 56.1 °F 42.0 °F 30.06 in SW 7.2 mph 12.7 mph 59 % 0.00 in
10:49 56.6 °F 42.0 °F 30.06 in WSW 3.8 mph 10.4 mph 58 % 0.00 in
10:54 56.7 °F 42.1 °F 30.06 in SW 8.2 mph 12.7 mph 58 % 0.00 in
10:59 56.7 °F 41.6 °F 30.06 in WSW 4.2 mph 13.0 mph 57 % 0.00 in
11:04 56.7 °F 41.6 °F 30.06 in West 2.0 mph 8.1 mph 57 % 0.00 in
11:09 56.7 °F 41.6 °F 30.06 in SW 5.0 mph 11.5 mph 57 % 0.00 in
11:19 56.8 °F 41.7 °F 30.06 in WSW 2.1 mph 5.8 mph 57 % 0.00 in
11:24 56.8 °F 41.7 °F 30.05 in SW 5.5 mph 11.5 mph 57 % 0.00 in
11:29 56.9 °F 41.8 °F 30.05 in West 3.5 mph 8.1 mph 57 % 0.00 in
11:34 57.0 °F 41.9 °F 30.05 in WSW 3.9 mph 6.9 mph 57 % 0.00 in
11:44 57.3 °F 41.3 °F 30.05 in WSW 6.1 mph 11.5 mph 55 % 0.00 in
11:49 57.4 °F 41.4 °F 30.05 in SW 5.3 mph 13.8 mph 55 % 0.00 in
11:54 57.5 °F 41.4 °F 30.05 in WSW 6.1 mph 11.0 mph 55 % 0.00 in
12:15 58.5 °F 41.4 °F 30.05 in WSW 4.3 mph 8.1 mph 53 % 0.00 in
12:20 58.9 °F 41.8 °F 30.05 in WSW 3.3 mph 9.2 mph 53 % 0.00 in
12:25 59.2 °F 41.1 °F 30.05 in WNW 5.6 mph 7.0 mph 51 % 0.00 in
12:30 59.6 °F 42.4 °F 30.05 in WNW 2.4 mph 4.6 mph 53 % 0.00 in
12:41 60.2 °F 40.4 °F 30.05 in West 6.1 mph 10.4 mph 48 % 0.00 in
12:46 60.4 °F 40.6 °F 30.05 in WNW 3.5 mph 5.8 mph 48 % 0.00 in
12:51 60.7 °F 40.9 °F 30.05 in WNW 3.8 mph 8.1 mph 48 % 0.00 in
12:56 60.9 °F 40.5 °F 30.05 in WNW 4.4 mph 12.7 mph 47 % 0.00 in
13:01 61.1 °F 40.7 °F 30.05 in West 4.8 mph 11.5 mph 47 % 0.00 in
13:06 61.2 °F 40.2 °F 30.04 in West 5.2 mph 8.1 mph 46 % 0.00 in
13:16 61.6 °F 40.0 °F 30.04 in SSW 3.0 mph 5.0 mph 45 % 0.00 in
13:26 61.9 °F 40.9 °F 30.04 in West 2.6 mph 5.8 mph 46 % 0.00 in
13:31 62.0 °F 41.0 °F 30.04 in WSW 4.4 mph 11.5 mph 46 % 0.00 in
13:42 62.3 °F 40.7 °F 30.04 in SW 3.8 mph 8.1 mph 45 % 0.00 in
13:47 62.4 °F 39.6 °F 30.04 in West 6.5 mph 9.0 mph 43 % 0.00 in
13:52 62.5 °F 39.1 °F 30.05 in WNW 6.0 mph 11.5 mph 42 % 0.00 in
14:02 62.4 °F 40.2 °F 30.05 in WNW 5.5 mph 12.7 mph 44 % 0.00 in
14:07 62.2 °F 40.0 °F 30.05 in NW 7.7 mph 13.8 mph 44 % 0.00 in
14:12 61.8 °F 39.1 °F 30.06 in NW 4.7 mph 11.5 mph 43 % 0.00 in
14:17 61.6 °F 38.3 °F 30.06 in NW 7.5 mph 11.5 mph 42 % 0.00 in
14:22 61.4 °F 38.1 °F 30.06 in West 5.5 mph 11.5 mph 42 % 0.00 in
14:32 61.1 °F 37.8 °F 30.06 in NW 7.5 mph 11.5 mph 42 % 0.00 in
14:37 60.9 °F 37.0 °F 30.06 in WNW 6.4 mph 11.5 mph 41 % 0.00 in
14:42 60.9 °F 38.8 °F 30.06 in NW 3.0 mph 8.1 mph 44 % 0.00 in
14:47 60.7 °F 38.6 °F 30.07 in NW 5.0 mph 10.4 mph 44 % 0.00 in
14:57 60.1 °F 38.1 °F 30.07 in WSW 6.1 mph 15.0 mph 44 % 0.00 in
15:02 59.8 °F 36.6 °F 30.08 in North 5.7 mph 11.5 mph 42 % 0.00 in
15:12 59.4 °F 33.1 °F 30.09 in West 7.4 mph 12.7 mph 37 % 0.00 in
15:16 59.4 °F 33.8 °F 30.09 in WNW 7.0 mph 14.0 mph 38 % 0.00 in
15:21 59.3 °F 34.3 °F 30.09 in NW 6.0 mph 12.0 mph 39 % 0.00 in
15:26 59.1 °F 38.4 °F 30.10 in NW 5.0 mph 12.0 mph 46 % 0.00 in
15:31 58.9 °F 37.6 °F 30.10 in West 3.7 mph 6.9 mph 45 % 0.00 in
15:40 58.2 °F 36.9 °F 30.11 in North 6.7 mph 15.0 mph 45 % 0.00 in
15:46 57.8 °F 37.1 °F 30.11 in WNW 7.0 mph 15.0 mph 46 % 0.00 in
15:50 57.5 °F 35.2 °F 30.12 in WNW 6.0 mph 15.0 mph 43 % 0.00 in
15:55 57.4 °F 36.2 °F 30.12 in NW 4.0 mph 11.5 mph 45 % 0.00 in
16:00 57.2 °F 38.2 °F 30.12 in WNW 2.7 mph 11.5 mph 49 % 0.00 in
16:05 57.0 °F 38.0 °F 30.12 in NW 3.0 mph 10.4 mph 49 % 0.00 in
16:11 56.6 °F 38.2 °F 30.13 in NNW 6.0 mph 15.0 mph 50 % 0.00 in
16:15 56.3 °F 36.8 °F 30.13 in NW 6.5 mph 10.0 mph 48 % 0.00 in
16:21 56.1 °F 36.7 °F 30.14 in NNW 5.0 mph 9.0 mph 48 % 0.00 in
16:26 55.9 °F 36.5 °F 30.14 in NW 6.0 mph 12.0 mph 48 % 0.00 in
16:31 55.7 °F 36.3 °F 30.14 in WNW 3.0 mph 12.0 mph 48 % 0.00 in
16:36 55.4 °F 37.1 °F 30.15 in WNW 6.0 mph 13.0 mph 50 % 0.00 in
16:41 55.3 °F 37.0 °F 30.15 in WNW 5.0 mph 12.0 mph 50 % 0.00 in
16:45 55.1 °F 36.2 °F 30.16 in WNW 6.0 mph 12.0 mph 49 % 0.00 in
16:50 54.9 °F 35.6 °F 30.16 in WNW 2.7 mph 8.1 mph 48 % 0.00 in
16:56 54.8 °F 36.0 °F 30.16 in NW 5.0 mph 12.0 mph 49 % 0.00 in
17:06 54.4 °F 37.1 °F 30.17 in West 3.9 mph 11.5 mph 52 % 0.00 in
17:11 54.2 °F 37.4 °F 30.17 in NW 2.7 mph 6.9 mph 53 % 0.00 in
17:16 54.0 °F 37.2 °F 30.17 in WNW 3.5 mph 9.2 mph 53 % 0.00 in
17:41 53.1 °F 39.6 °F 30.19 in NW 2.1 mph 6.9 mph 60 % 0.00 in
17:46 52.7 °F 37.4 °F 30.20 in North 5.8 mph 11.5 mph 56 % 0.00 in
17:51 52.5 °F 36.8 °F 30.20 in NNE 9.5 mph 12.0 mph 55 % 0.00 in
17:56 52.3 °F 36.1 °F 30.21 in NNW 6.4 mph 11.5 mph 54 % 0.00 in
18:01 52.2 °F 35.6 °F 30.21 in North 7.3 mph 16.1 mph 53 % 0.00 in
18:11 52.0 °F 35.4 °F 30.22 in NNW 6.2 mph 12.0 mph 53 % 0.00 in
18:16 51.8 °F 35.7 °F 30.22 in NNE 6.3 mph 10.4 mph 54 % 0.00 in
18:22 51.7 °F 35.1 °F 30.22 in North 5.8 mph 11.5 mph 53 % 0.00 in
18:37 51.3 °F 34.7 °F 30.23 in NNW 7.3 mph 13.0 mph 53 % 0.00 in
18:52 50.8 °F 33.8 °F 30.24 in NNW 5.0 mph 8.1 mph 52 % 0.00 in
18:57 50.6 °F 34.1 °F 30.24 in North 2.8 mph 6.9 mph 53 % 0.00 in
19:02 50.5 °F 34.5 °F 30.24 in NNW 3.2 mph 10.4 mph 54 % 0.00 in
19:05 50.3 °F 34.7 °F 30.25 in NNW 6.9 mph 11.5 mph 55 % 0.00 in
19:10 50.0 °F 34.0 °F 30.25 in NNW 2.9 mph 8.1 mph 54 % 0.00 in
19:12 50.0 °F 34.5 °F 30.25 in NW 5.9 mph 12.0 mph 55 % 0.00 in
19:22 49.7 °F 33.2 °F 30.27 in NNW 3.8 mph 4.6 mph 53 % 0.00 in
19:27 49.5 °F 33.5 °F 30.27 in North 6.9 mph 10.0 mph 54 % 0.00 in
19:37 48.9 °F 33.0 °F 30.27 in North 8.9 mph 13.8 mph 54 % 0.00 in
19:42 48.8 °F 32.9 °F 30.27 in NNW 5.2 mph 11.5 mph 54 % 0.00 in
19:53 48.6 °F 34.0 °F 30.28 in NNE 5.1 mph 11.5 mph 57 % 0.00 in
20:08 48.0 °F 33.5 °F 30.28 in North 7.4 mph 15.0 mph 57 % 0.00 in
20:13 47.8 °F 33.3 °F 30.28 in NNE 7.3 mph 10.4 mph 57 % 0.00 in
20:18 47.7 °F 33.2 °F 30.29 in North 4.5 mph 10.4 mph 57 % 0.00 in
20:23 47.6 °F 33.5 °F 30.29 in NNE 7.0 mph 13.8 mph 58 % 0.00 in
20:25 47.5 °F 33.9 °F 30.29 in North 7.5 mph 11.5 mph 59 % 0.00 in
20:30 47.3 °F 33.7 °F 30.29 in NE 8.0 mph 10.0 mph 59 % 0.00 in
20:35 47.1 °F 33.1 °F 30.29 in North 7.4 mph 11.5 mph 58 % 0.00 in
20:45 46.8 °F 32.8 °F 30.30 in NNW 7.8 mph 13.8 mph 58 % 0.00 in
20:50 46.7 °F 32.7 °F 30.29 in NNE 5.6 mph 10.4 mph 58 % 0.00 in
21:01 46.4 °F 32.0 °F 30.30 in NNW 6.9 mph 7.0 mph 57 % 0.00 in
21:10 46.1 °F 32.1 °F 30.30 in North 9.0 mph 18.0 mph 58 % 0.00 in
21:15 45.9 °F 31.1 °F 30.30 in NE 9.8 mph 15.0 mph 56 % 0.00 in
21:30 45.6 °F 31.2 °F 30.30 in North 6.9 mph 11.5 mph 57 % 0.00 in
21:35 45.5 °F 31.6 °F 30.30 in NE 6.9 mph 11.0 mph 58 % 0.00 in
21:40 45.3 °F 31.8 °F 30.30 in NNE 6.9 mph 11.5 mph 59 % 0.00 in
21:45 45.2 °F 31.3 °F 30.31 in NNE 6.0 mph 10.4 mph 58 % 0.00 in
21:50 45.1 °F 31.2 °F 30.31 in North 8.1 mph 11.5 mph 58 % 0.00 in
21:55 45.0 °F 31.1 °F 30.31 in NNE 7.3 mph 13.0 mph 58 % 0.00 in
22:00 44.9 °F 30.6 °F 30.31 in NNE 6.6 mph 11.5 mph 57 % 0.00 in
22:05 44.7 °F 30.8 °F 30.31 in NNE 3.7 mph 8.1 mph 58 % 0.00 in
22:10 44.6 °F 31.1 °F 30.31 in North 6.1 mph 8.1 mph 59 % 0.00 in
22:15 44.5 °F 31.1 °F 30.31 in North 6.3 mph 11.5 mph 59 % 0.00 in
22:21 44.4 °F 30.5 °F 30.31 in NNE 6.0 mph 10.0 mph 58 % 0.00 in
22:31 44.2 °F 30.8 °F 30.31 in North 6.0 mph 10.0 mph 59 % 0.00 in
22:41 44.0 °F 30.6 °F 30.31 in North 6.9 mph 9.0 mph 59 % 0.00 in
22:51 43.7 °F 30.7 °F 30.31 in North 7.3 mph 10.0 mph 60 % 0.00 in
22:56 43.7 °F 30.3 °F 30.31 in North 6.4 mph 10.4 mph 59 % 0.00 in
23:01 43.6 °F 30.6 °F 30.31 in North 6.9 mph 10.4 mph 60 % 0.00 in
23:11 43.4 °F 30.4 °F 30.31 in NNE 6.0 mph 9.2 mph 60 % 0.00 in
23:17 43.3 °F 30.3 °F 30.32 in NE 5.2 mph 9.2 mph 60 % 0.00 in
23:22 43.2 °F 30.6 °F 30.32 in NNE 5.5 mph 8.1 mph 61 % 0.00 in
23:27 43.2 °F 30.6 °F 30.31 in NNE 4.5 mph 6.9 mph 61 % 0.00 in
23:37 43.0 °F 30.5 °F 30.32 in North 3.4 mph 5.8 mph 61 % 0.00 in
23:42 42.9 °F 30.4 °F 30.32 in North 6.6 mph 10.4 mph 61 % 0.00 in
23:47 42.8 °F 30.3 °F 30.32 in NNE 3.1 mph 4.6 mph 61 % 0.00 in
23:52 42.7 °F 30.2 °F 30.32 in North 5.1 mph 8.1 mph 61 % 0.00 in
23:57 42.7 °F 30.2 °F 30.32 in North 1.6 mph 3.5 mph 61 % 0.00 in
Crab Meadow Weather
Compliments of Weather Underground - 2.5 mb

Script developed by  Jim McMurry - jmcmurry@mwt.net Adapted for the template by  Wim van der Kuil - Leuven-Template.eu

Astronomy: Pluto is not a planet, because it does not have a fixed orbit and it's orbit comes in between the orbit of another planet (Neptune).